This demonstration page uses our WeatherBlox Daily Observations layout. Learn more.

36.17497, -115.13722

Hourly Observations for November 30, 2019

Temp ( °F °C ) Dew Point ( °F °C ) Humidity (%) Winds ( mph kmh ) Pressure ( in mb ) Visibility ( mi km ) Precip ( " mm )
12:53 am 00:53 Clear 36 2.2 28 -2.2 73 73 Calm 30.07 1018 10 16.0934 0 0
1:53 am 01:53 Clear 35 1.7 27 -2.8 72 72 NW 6 9 30.09 1019 10 16.0934 0 0
2:53 am 02:53 Clear 35 1.7 27 -2.8 72 72 NNE 5 7 30.12 1020 10 16.0934 0 0
3:53 am 03:53 Clear 33 0.6 27 -2.8 78 78 WSW 5 7 30.14 1021 10 16.0934 0 0
4:53 am 04:53 Clear 35 1.7 27 -2.8 72 72 NNW 8 13 30.16 1021 10 16.0934 0 0
5:53 am 05:53 Clear 34 1.1 25 -3.9 70 70 NW 7 11 30.2 1023 10 16.0934 0 0
6:53 am 06:53 Sunny 36 2.2 25 -3.9 64 64 NW 8 13 30.23 1024 10 16.0934 0 0
7:53 am 07:53 Sunny 39 3.9 26 -3.3 60 60 NW 10 17 30.26 1025 10 16.0934 0 0
10:53 am 10:53 Sunny 45 7.2 28 -2.2 52 52 E 6 9 30.29 1026 10 16.0934 0 0
11:53 am 11:53 Sunny 46 7.8 28 -2.2 50 50 E 6 9 30.28 1026 10 16.0934 0 0
12:53 pm 12:53 Sunny 47 8.3 28 -2.2 48 48 E 6 9 30.26 1025 10 16.0934 0 0
1:53 pm 13:53 Sunny 48 8.9 26 -3.3 42 42 ENE 6 9 30.26 1025 10 16.0934 0 0
2:53 pm 14:53 Sunny 47 8.3 25 -3.9 42 42 E 7 11 30.26 1025 10 16.0934 0 0
3:53 pm 15:53 Sunny 47 8.3 27 -2.8 46 46 E 7 11 30.28 1025 10 16.0934 0 0
4:53 pm 16:53 Clear 46 7.8 30 -1.1 54 54 ENE 8 13 30.29 1026 10 16.0934 0 0
5:53 pm 17:53 Clear 45 7.2 30 -1.1 56 56 ENE 3 6 30.31 1026 10 16.0934 0 0
6:53 pm 18:53 Mostly Clear 45 7.2 31 -0.6 58 58 ESE 3 6 30.31 1026 10 16.0934 0 0
7:53 pm 19:53 Partly Cloudy 45 7.2 30 -1.1 56 56 VRB 3 6 30.29 1026 10 16.0934 0 0
8:53 pm 20:53 Cloudy 44 6.7 31 -0.6 60 60 E 7 11 30.29 1026 10 16.0934 0 0
9:53 pm 21:53 Cloudy 43 6.1 31 -0.6 63 63 SSE 5 7 30.29 1026 10 16.0934 0 0
10:53 pm 22:53 Mostly Clear 43 6.1 30 -1.1 60 60 E 3 6 30.28 1025 10 16.0934 0 0
11:53 pm 23:53 Clear 42 5.6 29 -1.7 60 60 SSE 3 6 30.27 1025 10 16.0934 0 0

Powered by AerisWeather